| time (UTC) | temp F | wind direction | speed knots | gust knots | rain 1hr in | rain 24hr in | rain mn in | humidity % | barometer mb |
| 20260903074304 | 75 | 352 | 0.0 | 0.9 | 0.00 | 0.00 | 0.00 | 85 | 1015.4 |
| 20260903073800 | 76 | 352 | 0.0 | 0.9 | 0.00 | 0.00 | 0.00 | 84 | 1015.5 |
| 20260903073255 | 77 | 352 | 0.9 | 0.9 | 0.00 | 0.00 | 0.00 | 81 | 1015.4 |
| 20260903072751 | 77 | 352 | 0.0 | 0.0 | 0.00 | 0.00 | 0.00 | 79 | 1015.5 |
| 20260903072247 | 78 | 352 | 0.0 | 0.0 | 0.00 | 0.00 | 0.00 | 77 | 1015.5 |
| 20260903071743 | 78 | 352 | 0.0 | 0.0 | 0.00 | 0.00 | 0.00 | 74 | 1015.4 |
| 20260903071238 | 79 | 351 | 0.0 | 0.9 | 0.00 | 0.00 | 0.00 | 74 | 1015.4 |
| 20260903070738 | 79 | 12 | 0.0 | 0.9 | 0.00 | 0.00 | 0.00 | 73 | 1015.6 |
| 20260903070234 | 79 | 334 | 1.7 | 4.3 | 0.00 | 0.00 | 0.00 | 73 | 1015.5 |
| 20260903065729 | 80 | 298 | 2.6 | 3.5 | 0.00 | 0.00 | 0.00 | 76 | 1015.6 |
| 20260903065228 | 80 | 328 | 2.6 | 4.3 | 0.00 | 0.00 | 0.00 | 76 | 1015.8 |
| 20260903064727 | 80 | 335 | 3.5 | 7.0 | 0.00 | 0.00 | 0.00 | 78 | 1015.7 |
| 20260903064223 | 79 | 344 | 1.7 | 4.3 | 0.00 | 0.00 | 0.00 | 79 | 1015.9 |
| 20260903063719 | 79 | 261 | 4.3 | 6.1 | 0.00 | 0.00 | 0.00 | 79 | 1015.8 |
| 20260903063213 | 78 | 358 | 2.6 | 3.5 | 0.00 | 0.00 | 0.00 | 80 | 1016.0 |
| 20260903062709 | 78 | 359 | 3.5 | 6.1 | 0.00 | 0.00 | 0.00 | 83 | 1016.0 |
| 20260903062204 | 78 | 32 | 0.9 | 0.9 | 0.00 | 0.00 | 0.00 | 82 | 1015.6 |
| 20260903061700 | 78 | 33 | 1.7 | 0.9 | 0.00 | 0.00 | 0.00 | 81 | 1015.3 |
| 20260903061158 | 78 | 193 | 0.9 | 0.9 | 0.00 | 0.00 | 0.00 | 80 | 1015.2 |
| 20260903060654 | 78 | 71 | 0.9 | 0.9 | 0.00 | 0.00 | 0.00 | 81 | 1015.1 |
| 20260903060143 | 78 | 331 | 0.0 | 0.0 | 0.00 | 0.00 | 0.00 | 80 | 1015.2 |
| 20260903055641 | 78 | 281 | 0.0 | 0.9 | 0.00 | 0.00 | 0.00 | 81 | 1015.2 |
| 20260903055139 | 78 | 295 | 2.6 | 3.5 | 0.00 | 0.00 | 0.00 | 81 | 1015.3 |
| 20260903054634 | 78 | 272 | 2.6 | 2.6 | 0.00 | 0.00 | 0.00 | 81 | 1015.2 |
| 20260903054130 | 78 | 239 | 1.7 | 3.5 | 0.00 | 0.00 | 0.00 | 81 | 1015.3 |
| 20260903053626 | 78 | 295 | 1.7 | 2.6 | 0.00 | 0.00 | 0.00 | 81 | 1015.4 |
| 20260903053121 | 78 | 212 | 1.7 | 2.6 | 0.00 | 0.00 | 0.00 | 81 | 1015.3 |
| 20260903052617 | 78 | 134 | 0.9 | 2.6 | 0.00 | 0.00 | 0.00 | 80 | 1015.2 |
| 20260903052112 | 79 | 214 | 0.0 | 0.9 | 0.00 | 0.00 | 0.00 | 80 | 1015.1 |
| 20260903051612 | 79 | 222 | 0.0 | 2.6 | 0.00 | 0.00 | 0.00 | 80 | 1015.0 |
| 20260903051108 | 78 | 264 | 1.7 | 0.9 | 0.00 | 0.00 | 0.00 | 81 | 1015.0 |
| 20260903050602 | 78 | 104 | 0.9 | 0.9 | 0.00 | 0.00 | 0.00 | 81 | 1014.9 |
| 20260903050057 | 78 | 203 | 0.9 | 0.9 | 0.00 | 0.00 | 0.00 | 81 | 1014.8 |
| 20260903045556 | 79 | 232 | 0.9 | 3.5 | 0.00 | 0.00 | 0.00 | 81 | 1015.0 |
| 20260903045053 | 79 | 226 | 0.0 | 0.9 | 0.00 | 0.00 | 0.00 | 80 | 1014.8 |
| 20260903044549 | 79 | 268 | 0.9 | 2.6 | 0.00 | 0.00 | 0.00 | 80 | 1015.0 |
| 20260903044044 | 79 | 191 | 0.9 | 2.6 | 0.00 | 0.00 | 0.00 | 80 | 1015.0 |
| 20260903043540 | 79 | 267 | 0.9 | 0.9 | 0.00 | 0.00 | 0.00 | 80 | 1014.6 |
| 20260903043039 | 79 | 100 | 0.0 | 0.9 | 0.00 | 0.00 | 0.00 | 80 | 1014.6 |
| 20260903042534 | 79 | 219 | 2.6 | 3.5 | 0.00 | 0.00 | 0.00 | 80 | 1014.5 |
| 20260903042029 | 79 | 207 | 0.0 | 0.9 | 0.00 | 0.00 | 0.00 | 80 | 1014.4 |
| 20260903041526 | 79 | 224 | 0.9 | 0.9 | 0.00 | 0.00 | 0.00 | 80 | 1014.5 |
| 20260903041021 | 79 | 249 | 2.6 | 2.6 | 0.00 | 0.00 | 0.00 | 81 | 1014.4 |
| 20260903040519 | 79 | 230 | 0.0 | 0.9 | 0.00 | 0.00 | 0.00 | 81 | 1014.6 |
| 20260903040017 | 79 | 248 | 1.7 | 3.5 | 0.00 | 0.00 | 0.00 | 81 | 1014.1 |
| 20260903035512 | 79 | 206 | 1.7 | 3.5 | 0.00 | 0.00 | 0.00 | 81 | 1014.2 |
| 20260903035007 | 78 | 295 | 1.7 | 3.5 | 0.00 | 0.00 | 0.00 | 83 | 1014.0 |
| 20260903034501 | 78 | 223 | 0.0 | 2.6 | 0.00 | 0.00 | 0.00 | 83 | 1013.9 |
| 20260903033956 | 78 | 231 | 0.0 | 2.6 | 0.00 | 0.00 | 0.00 | 83 | 1014.1 |
| 20260903033452 | 78 | 237 | 1.7 | 2.6 | 0.00 | 0.00 | 0.00 | 85 | 1014.1 |
| 20260903032946 | 78 | 220 | 2.6 | 2.6 | 0.00 | 0.00 | 0.00 | 85 | 1014.2 |
| 20260903032442 | 78 | 235 | 0.9 | 0.9 | 0.00 | 0.00 | 0.00 | 84 | 1014.2 |
| 20260903031937 | 78 | 218 | 1.7 | 0.9 | 0.00 | 0.00 | 0.00 | 84 | 1014.4 |
| 20260903031437 | 78 | 218 | 0.9 | 0.9 | 0.00 | 0.00 | 0.00 | 84 | 1014.3 |
| 20260903030932 | 78 | 278 | 0.0 | 0.9 | 0.00 | 0.00 | 0.00 | 84 | 1014.6 |
| 20260903030428 | 78 | 211 | 0.0 | 0.9 | 0.00 | 0.00 | 0.00 | 85 | 1014.7 |
| 20260903025924 | 78 | 213 | 0.9 | 0.9 | 0.00 | 0.00 | 0.00 | 86 | 1014.7 |
| 20260903025419 | 77 | 226 | 0.0 | 0.0 | 0.00 | 0.00 | 0.00 | 87 | 1015.2 |
| 20260903024914 | 77 | 226 | 0.0 | 0.0 | 0.00 | 0.00 | 0.00 | 87 | 1015.1 |
| 20260903024408 | 77 | 226 | 0.0 | 0.0 | 0.00 | 0.00 | 0.00 | 87 | 1015.2 |
| 20260903023903 | 78 | 226 | 0.0 | 0.0 | 0.00 | 0.00 | 0.00 | 86 | 1015.2 |
| 20260903023359 | 78 | 226 | 0.0 | 0.0 | 0.00 | 0.00 | 0.00 | 86 | 1015.2 |
| 20260903022854 | 78 | 226 | 0.9 | 0.9 | 0.00 | 0.00 | 0.00 | 86 | 1015.1 |
| 20260903022353 | 78 | 227 | 0.0 | 0.0 | 0.00 | 0.00 | 0.00 | 86 | 1015.2 |
| 20260903021851 | 78 | 227 | 0.0 | 0.0 | 0.00 | 0.00 | 0.00 | 85 | 1015.1 |
| 20260903021348 | 78 | 227 | 0.0 | 0.0 | 0.00 | 0.00 | 0.00 | 86 | 1015.1 |
| 20260903020847 | 78 | 227 | 0.0 | 0.9 | 0.00 | 0.00 | 0.00 | 86 | 1015.2 |
| 20260903020343 | 78 | 227 | 0.0 | 0.0 | 0.00 | 0.00 | 0.00 | 86 | 1015.0 |
| 20260903015837 | 78 | 227 | 0.0 | 0.9 | 0.00 | 0.00 | 0.00 | 86 | 1015.1 |
| 20260903015333 | 77 | 210 | 0.0 | 4.3 | 0.00 | 0.00 | 0.00 | 88 | 1015.1 |
| 20260903014828 | 77 | 269 | 0.9 | 0.9 | 0.00 | 0.00 | 0.00 | 88 | 1015.2 |
| 20260903014328 | 78 | 270 | 0.9 | 0.9 | 0.00 | 0.00 | 0.00 | 88 | 1015.2 |
| 20260903013823 | 78 | 270 | 0.0 | 0.0 | 0.00 | 0.00 | 0.00 | 87 | 1015.2 |
| 20260903013322 | 78 | 270 | 0.0 | 0.0 | 0.00 | 0.00 | 0.00 | 86 | 1015.3 |
| 20260903012821 | 79 | 270 | 0.0 | 0.0 | 0.00 | 0.00 | 0.00 | 85 | 1015.3 |
| 20260903012316 | 79 | 270 | 0.0 | 0.0 | 0.00 | 0.00 | 0.00 | 85 | 1015.1 |
| 20260903011815 | 80 | 270 | 0.0 | 0.0 | 0.00 | 0.00 | 0.00 | 82 | 1015.2 |
| 20260903011314 | 80 | 270 | 0.0 | 0.0 | 0.00 | 0.00 | 0.00 | 81 | 1015.4 |
| 20260903010804 | 80 | 270 | 0.0 | 0.0 | 0.00 | 0.00 | 0.00 | 80 | 1015.1 |
| 20260903010300 | 81 | 269 | 0.0 | 0.9 | 0.00 | 0.00 | 0.00 | 79 | 1015.3 |
| 20260903005758 | 81 | 269 | 0.9 | 0.9 | 0.00 | 0.00 | 0.00 | 78 | 1015.1 |
| 20260903005253 | 81 | 267 | 0.9 | 0.9 | 0.00 | 0.00 | 0.00 | 78 | 1015.2 |
| 20260903004749 | 81 | 298 | 0.0 | 0.0 | 0.00 | 0.00 | 0.00 | 77 | 1015.3 |
| 20260903004244 | 81 | 298 | 0.0 | 0.0 | 0.00 | 0.00 | 0.00 | 78 | 1015.2 |
| 20260903003740 | 82 | 298 | 0.0 | 0.0 | 0.00 | 0.00 | 0.00 | 77 | 1015.0 |
| 20260903003235 | 82 | 40 | 0.0 | 0.9 | 0.00 | 0.00 | 0.00 | 77 | 1014.9 |
| 20260903002729 | 83 | 335 | 0.0 | 0.0 | 0.00 | 0.00 | 0.00 | 74 | 1015.0 |
| 20260903002223 | 83 | 336 | 0.0 | 0.0 | 0.00 | 0.00 | 0.00 | 72 | 1014.9 |
| 20260903001719 | 84 | 336 | 0.0 | 0.0 | 0.00 | 0.00 | 0.00 | 71 | 1014.8 |
| 20260903001213 | 84 | 336 | 0.0 | 0.0 | 0.00 | 0.00 | 0.00 | 70 | 1014.7 |
| 20260903000708 | 84 | 333 | 0.9 | 0.9 | 0.00 | 0.00 | 0.00 | 69 | 1014.6 |
| 20260903000208 | 84 | 241 | 0.0 | 3.5 | 0.00 | 0.00 | 0.00 | 70 | 1014.4 |
| 20260902235706 | 84 | 167 | 0.9 | 2.6 | 0.00 | 0.00 | 0.00 | 70 | 1014.2 |
| 20260902235202 | 85 | 201 | 0.0 | 0.9 | 0.00 | 0.00 | 0.00 | 68 | 1014.4 |
| 20260902234701 | 85 | 191 | 0.0 | 0.9 | 0.00 | 0.00 | 0.00 | 68 | 1014.6 |
| 20260902234200 | 85 | 180 | 0.9 | 0.9 | 0.00 | 0.00 | 0.00 | 67 | 1014.6 |
| 20260902233655 | 85 | 219 | 1.7 | 2.6 | 0.00 | 0.00 | 0.00 | 66 | 1014.8 |
| 20260902233155 | 86 | 164 | 0.9 | 2.6 | 0.00 | 0.00 | 0.00 | 66 | 1014.8 |
| 20260902232654 | 86 | 223 | 1.7 | 2.6 | 0.00 | 0.00 | 0.00 | 64 | 1014.7 |
| 20260902232153 | 86 | 139 | 0.9 | 0.9 | 0.00 | 0.00 | 0.00 | 63 | 1014.6 |
| 20260902231647 | 87 | 189 | 0.9 | 0.9 | 0.00 | 0.00 | 0.00 | 63 | 1014.8 |
| 20260902231142 | 87 | 222 | 0.9 | 2.6 | 0.00 | 0.00 | 0.00 | 62 | 1014.8 |
| 20260902230638 | 87 | 313 | 0.9 | 0.9 | 0.00 | 0.00 | 0.00 | 61 | 1014.7 |
| 20260902230136 | 88 | 150 | 0.0 | 2.6 | 0.00 | 0.00 | 0.00 | 61 | 1014.8 |
| 20260902225632 | 88 | 218 | 3.5 | 3.5 | 0.00 | 0.00 | 0.00 | 60 | 1014.9 |
| 20260902225131 | 88 | 227 | 2.6 | 3.5 | 0.00 | 0.00 | 0.00 | 61 | 1014.9 |
| 20260902224630 | 88 | 269 | 3.5 | 4.3 | 0.00 | 0.00 | 0.00 | 59 | 1014.7 |
| 20260902224126 | 89 | 221 | 1.7 | 7.0 | 0.00 | 0.00 | 0.00 | 58 | 1014.7 |
| 20260902223622 | 90 | 95 | 0.9 | 2.6 | 0.00 | 0.00 | 0.00 | 59 | 1014.9 |
| 20260902223121 | 90 | 270 | 1.7 | 2.6 | 0.00 | 0.00 | 0.00 | 58 | 1014.9 |
| 20260902222622 | 90 | 311 | 0.9 | 2.6 | 0.00 | 0.00 | 0.00 | 57 | 1014.8 |
| 20260902222119 | 91 | 248 | 0.9 | 3.5 | 0.00 | 0.00 | 0.00 | 56 | 1014.8 |
| 20260902221613 | 91 | 195 | 0.9 | 3.5 | 0.00 | 0.00 | 0.00 | 56 | 1014.7 |
| 20260902221108 | 91 | 259 | 0.9 | 0.9 | 0.00 | 0.00 | 0.00 | 56 | 1014.5 |
| 20260902220604 | 91 | 259 | 3.5 | 4.3 | 0.00 | 0.00 | 0.00 | 55 | 1014.6 |
| 20260902220058 | 91 | 227 | 1.7 | 4.3 | 0.00 | 0.00 | 0.00 | 56 | 1014.6 |
| 20260902215554 | 91 | 258 | 2.6 | 4.3 | 0.00 | 0.00 | 0.00 | 56 | 1014.5 |
| 20260902215050 | 91 | 339 | 4.3 | 6.1 | 0.00 | 0.00 | 0.00 | 56 | 1014.4 |
| 20260902214550 | 91 | 188 | 2.6 | 6.1 | 0.00 | 0.00 | 0.00 | 56 | 1014.5 |
| 20260902214049 | 92 | 244 | 1.7 | 4.3 | 0.00 | 0.00 | 0.00 | 57 | 1014.5 |
| 20260902213545 | 92 | 240 | 2.6 | 3.5 | 0.00 | 0.00 | 0.00 | 54 | 1014.5 |
| 20260902213044 | 92 | 324 | 0.9 | 2.6 | 0.00 | 0.00 | 0.00 | 56 | 1014.6 |
| 20260902212539 | 92 | 288 | 1.7 | 6.1 | 0.00 | 0.00 | 0.00 | 57 | 1014.7 |
| 20260902212036 | 92 | 248 | 2.6 | 7.0 | 0.00 | 0.00 | 0.00 | 55 | 1014.7 |
| 20260902211532 | 92 | 212 | 1.7 | 6.1 | 0.00 | 0.00 | 0.00 | 55 | 1014.7 |
| 20260902211027 | 92 | 278 | 1.7 | 2.6 | 0.00 | 0.00 | 0.00 | 53 | 1015.0 |
| 20260902210527 | 93 | 329 | 1.7 | 3.5 | 0.00 | 0.00 | 0.00 | 54 | 1015.0 |
| 20260902210026 | 92 | 280 | 3.5 | 8.7 | 0.00 | 0.00 | 0.00 | 52 | 1015.0 |
| 20260902205520 | 93 | 251 | 7.8 | 10.4 | 0.00 | 0.00 | 0.00 | 51 | 1015.4 |
| 20260902205016 | 93 | 190 | 6.1 | 7.0 | 0.00 | 0.00 | 0.00 | 51 | 1015.4 |
| 20260902204515 | 91 | 207 | 2.6 | 8.7 | 0.00 | 0.00 | 0.00 | 54 | 1015.3 |
| 20260902204011 | 93 | 234 | 3.5 | 4.3 | 0.00 | 0.00 | 0.00 | 52 | 1015.1 |
| 20260902203506 | 93 | 115 | 0.0 | 6.1 | 0.00 | 0.00 | 0.00 | 52 | 1015.0 |
| 20260902203005 | 93 | 309 | 2.6 | 3.5 | 0.00 | 0.00 | 0.00 | 51 | 1015.4 |
| 20260902202501 | 93 | 226 | 2.6 | 4.3 | 0.00 | 0.00 | 0.00 | 55 | 1015.2 |
| 20260902201958 | 93 | 200 | 3.5 | 6.1 | 0.00 | 0.00 | 0.00 | 53 | 1015.3 |
| 20260902201457 | 93 | 246 | 2.6 | 8.7 | 0.00 | 0.00 | 0.00 | 51 | 1015.4 |
| 20260902200952 | 94 | 226 | 3.5 | 10.4 | 0.00 | 0.00 | 0.00 | 50 | 1015.3 |
| 20260902200447 | 94 | 281 | 3.5 | 6.1 | 0.00 | 0.00 | 0.00 | 51 | 1015.4 |
| 20260902195943 | 93 | 171 | 3.5 | 6.1 | 0.00 | 0.00 | 0.00 | 51 | 1015.5 |
| 20260902195438 | 93 | 140 | 1.7 | 7.0 | 0.00 | 0.00 | 0.00 | 53 | 1015.6 |
| 20260902194938 | 94 | 248 | 4.3 | 8.7 | 0.00 | 0.00 | 0.00 | 50 | 1015.6 |
| 20260902194437 | 93 | 191 | 2.6 | 3.5 | 0.00 | 0.00 | 0.00 | 49 | 1015.4 |
| 20260902193932 | 94 | 143 | 4.3 | 4.3 | 0.00 | 0.00 | 0.00 | 49 | 1015.7 |
| 20260902193428 | 95 | 160 | 1.7 | 3.5 | 0.00 | 0.00 | 0.00 | 48 | 1015.7 |
| 20260902192927 | 94 | 213 | 1.7 | 3.5 | 0.00 | 0.00 | 0.00 | 51 | 1015.7 |
| 20260902192426 | 94 | 65 | 1.7 | 3.5 | 0.00 | 0.00 | 0.00 | 48 | 1015.7 |
| 20260902191925 | 93 | 211 | 1.7 | 3.5 | 0.00 | 0.00 | 0.00 | 48 | 1015.8 |
| 20260902191421 | 94 | 276 | 4.3 | 7.0 | 0.00 | 0.00 | 0.00 | 49 | 1015.9 |
| 20260902190916 | 94 | 241 | 0.9 | 2.6 | 0.00 | 0.00 | 0.00 | 49 | 1015.9 |
| 20260902190411 | 94 | 282 | 4.3 | 4.3 | 0.00 | 0.00 | 0.00 | 49 | 1016.0 |
| 20260902185906 | 93 | 312 | 0.9 | 0.9 | 0.00 | 0.00 | 0.00 | 53 | 1016.1 |
| 20260902185402 | 93 | 248 | 3.5 | 6.1 | 0.00 | 0.00 | 0.00 | 49 | 1016.0 |
| 20260902184857 | 93 | 217 | 4.3 | 4.3 | 0.00 | 0.00 | 0.00 | 51 | 1016.1 |
| 20260902184352 | 93 | 246 | 5.2 | 6.1 | 0.00 | 0.00 | 0.00 | 49 | 1016.2 |
| 20260902183848 | 93 | 349 | 0.9 | 3.5 | 0.00 | 0.00 | 0.00 | 52 | 1016.4 |
| 20260902183344 | 92 | 221 | 2.6 | 3.5 | 0.00 | 0.00 | 0.00 | 53 | 1016.4 |
| 20260902182834 | 91 | 257 | 3.5 | 6.1 | 0.00 | 0.00 | 0.00 | 53 | 1016.1 |
| 20260902182330 | 92 | 250 | 5.2 | 7.0 | 0.00 | 0.00 | 0.00 | 52 | 1016.2 |
| 20260902181826 | 91 | 103 | 1.7 | 6.1 | 0.00 | 0.00 | 0.00 | 55 | 1016.3 |
| 20260902181322 | 91 | 259 | 2.6 | 4.3 | 0.00 | 0.00 | 0.00 | 55 | 1016.5 |
| 20260902180816 | 92 | 185 | 4.3 | 6.1 | 0.00 | 0.00 | 0.00 | 54 | 1016.4 |
| 20260902180312 | 93 | 327 | 0.9 | 3.5 | 0.00 | 0.00 | 0.00 | 54 | 1016.5 |
| 20260902175807 | 91 | 211 | 4.3 | 4.3 | 0.00 | 0.00 | 0.00 | 54 | 1016.9 |
| 20260902175307 | 91 | 266 | 6.1 | 7.0 | 0.00 | 0.00 | 0.00 | 54 | 1017.0 |
| 20260902174757 | 91 | 288 | 1.7 | 4.3 | 0.00 | 0.00 | 0.00 | 59 | 1017.1 |
| 20260902174253 | 91 | 178 | 2.6 | 7.0 | 0.00 | 0.00 | 0.00 | 59 | 1017.1 |
| 20260902173749 | 92 | 252 | 3.5 | 3.5 | 0.00 | 0.00 | 0.00 | 56 | 1016.9 |
| 20260902173243 | 90 | 113 | 1.7 | 2.6 | 0.00 | 0.00 | 0.00 | 62 | 1017.1 |
| 20260902172737 | 91 | 154 | 2.6 | 3.5 | 0.00 | 0.00 | 0.00 | 62 | 1017.2 |
| 20260902172232 | 90 | 217 | 0.9 | 2.6 | 0.00 | 0.00 | 0.00 | 64 | 1017.2 |
| 20260902171727 | 89 | 278 | 2.6 | 4.3 | 0.00 | 0.00 | 0.00 | 62 | 1017.4 |
| 20260902171222 | 89 | 269 | 2.6 | 4.3 | 0.00 | 0.00 | 0.00 | 63 | 1017.4 |
| 20260902170718 | 89 | 228 | 2.6 | 4.3 | 0.00 | 0.00 | 0.00 | 63 | 1017.3 |
| 20260902170213 | 88 | 196 | 0.9 | 4.3 | 0.00 | 0.00 | 0.00 | 64 | 1017.4 |
| 20260902165708 | 89 | 268 | 4.3 | 6.1 | 0.00 | 0.00 | 0.00 | 62 | 1017.2 |
| 20260902165203 | 89 | 118 | 2.6 | 6.1 | 0.00 | 0.00 | 0.00 | 67 | 1017.3 |
| 20260902164658 | 89 | 261 | 0.9 | 0.9 | 0.00 | 0.00 | 0.00 | 64 | 1017.3 |
| 20260902164156 | 89 | 173 | 0.9 | 6.1 | 0.00 | 0.00 | 0.00 | 64 | 1017.2 |
| 20260902163652 | 88 | 246 | 3.5 | 7.0 | 0.00 | 0.00 | 0.00 | 64 | 1017.3 |
| 20260902163152 | 88 | 221 | 1.7 | 3.5 | 0.00 | 0.00 | 0.00 | 66 | 1017.4 |
| 20260902162650 | 89 | 244 | 4.3 | 6.1 | 0.00 | 0.00 | 0.00 | 65 | 1017.5 |
| 20260902162145 | 88 | 184 | 2.6 | 7.0 | 0.00 | 0.00 | 0.00 | 64 | 1017.4 |
| 20260902161640 | 88 | 281 | 4.3 | 4.3 | 0.00 | 0.00 | 0.00 | 64 | 1017.5 |
| 20260902161136 | 87 | 309 | 0.9 | 2.6 | 0.00 | 0.00 | 0.00 | 65 | 1017.6 |
| 20260902160632 | 87 | 266 | 2.6 | 3.5 | 0.00 | 0.00 | 0.00 | 66 | 1017.6 |
| 20260902160127 | 88 | 276 | 6.1 | 7.0 | 0.00 | 0.00 | 0.00 | 65 | 1017.6 |
| 20260902155625 | 87 | 256 | 2.6 | 3.5 | 0.00 | 0.00 | 0.00 | 66 | 1017.8 |
| 20260902155124 | 87 | 220 | 1.7 | 3.5 | 0.00 | 0.00 | 0.00 | 68 | 1017.7 |
| 20260902154619 | 88 | 301 | 4.3 | 4.3 | 0.00 | 0.00 | 0.00 | 65 | 1017.9 |
| 20260902154114 | 87 | 237 | 1.7 | 4.3 | 0.00 | 0.00 | 0.00 | 67 | 1017.9 |
| 20260902153613 | 87 | 121 | 0.9 | 2.6 | 0.00 | 0.00 | 0.00 | 67 | 1017.7 |
| 20260902153109 | 86 | 262 | 4.3 | 4.3 | 0.00 | 0.00 | 0.00 | 68 | 1017.6 |
| 20260902152605 | 86 | 267 | 3.5 | 3.5 | 0.00 | 0.00 | 0.00 | 71 | 1017.9 |
| 20260902152100 | 87 | 239 | 4.3 | 7.0 | 0.00 | 0.00 | 0.00 | 69 | 1017.8 |
| 20260902151556 | 86 | 65 | 0.0 | 0.9 | 0.00 | 0.00 | 0.00 | 70 | 1017.8 |
| 20260902151055 | 86 | 208 | 2.6 | 4.3 | 0.00 | 0.00 | 0.00 | 69 | 1017.8 |
| 20260902150550 | 85 | 280 | 1.7 | 4.3 | 0.00 | 0.00 | 0.00 | 70 | 1017.8 |
| 20260902150046 | 85 | 330 | 1.7 | 3.5 | 0.00 | 0.00 | 0.00 | 71 | 1017.6 |
| 20260902145541 | 84 | 249 | 0.0 | 2.6 | 0.00 | 0.00 | 0.00 | 73 | 1017.9 |
| 20260902145040 | 83 | 314 | 1.7 | 3.5 | 0.00 | 0.00 | 0.00 | 74 | 1017.6 |
| 20260902144537 | 83 | 264 | 3.5 | 6.1 | 0.00 | 0.00 | 0.00 | 74 | 1017.6 |
| 20260902144037 | 83 | 250 | 2.6 | 2.6 | 0.00 | 0.00 | 0.00 | 75 | 1017.6 |
| 20260902143532 | 84 | 34 | 0.9 | 0.9 | 0.00 | 0.00 | 0.00 | 74 | 1017.7 |
| 20260902143028 | 84 | 223 | 1.7 | 6.1 | 0.00 | 0.00 | 0.00 | 75 | 1017.6 |
| 20260902142523 | 83 | 273 | 2.6 | 3.5 | 0.00 | 0.00 | 0.00 | 75 | 1017.5 |
| 20260902142019 | 83 | 213 | 3.5 | 4.3 | 0.00 | 0.00 | 0.00 | 75 | 1017.4 |
| 20260902141518 | 83 | 281 | 4.3 | 4.3 | 0.00 | 0.00 | 0.00 | 75 | 1017.6 |
| 20260902141014 | 82 | 235 | 1.7 | 7.0 | 0.00 | 0.00 | 0.00 | 76 | 1017.4 |
| 20260902140508 | 82 | 355 | 3.5 | 6.1 | 0.00 | 0.00 | 0.00 | 77 | 1017.4 |
| 20260902140003 | 82 | 115 | 0.9 | 3.5 | 0.00 | 0.00 | 0.00 | 79 | 1017.4 |
| 20260902135458 | 82 | 105 | 0.9 | 3.5 | 0.00 | 0.00 | 0.00 | 80 | 1017.4 |
| 20260902134958 | 81 | 193 | 0.9 | 4.3 | 0.00 | 0.00 | 0.00 | 81 | 1017.5 |
| 20260902134454 | 80 | 267 | 3.5 | 4.3 | 0.00 | 0.00 | 0.00 | 81 | 1017.3 |
| 20260902133953 | 80 | 139 | 2.6 | 2.6 | 0.00 | 0.00 | 0.00 | 82 | 1017.2 |
| 20260902133448 | 80 | 234 | 1.7 | 6.1 | 0.00 | 0.00 | 0.00 | 83 | 1017.3 |
| 20260902132943 | 79 | 113 | 1.7 | 4.3 | 0.00 | 0.00 | 0.00 | 84 | 1017.4 |
| 20260902132438 | 79 | 243 | 1.7 | 4.3 | 0.00 | 0.00 | 0.00 | 84 | 1017.2 |
| 20260902131933 | 79 | 184 | 1.7 | 6.1 | 0.00 | 0.00 | 0.00 | 84 | 1017.4 |
| 20260902131430 | 78 | 229 | 0.9 | 3.5 | 0.00 | 0.00 | 0.00 | 86 | 1017.4 |
| 20260902130930 | 78 | 252 | 2.6 | 3.5 | 0.00 | 0.00 | 0.00 | 86 | 1017.3 |
| 20260902130426 | 78 | 287 | 2.6 | 3.5 | 0.00 | 0.00 | 0.00 | 87 | 1017.4 |
| 20260902125925 | 77 | 107 | 0.9 | 0.9 | 0.00 | 0.00 | 0.00 | 88 | 1017.4 |
| 20260902125422 | 77 | 276 | 1.7 | 2.6 | 0.00 | 0.00 | 0.00 | 87 | 1017.4 |
| 20260902124917 | 77 | 106 | 0.9 | 0.9 | 0.00 | 0.00 | 0.00 | 88 | 1017.3 |
| 20260902124413 | 76 | 306 | 0.0 | 2.6 | 0.00 | 0.00 | 0.00 | 90 | 1017.5 |
| 20260902123908 | 75 | 147 | 0.0 | 0.0 | 0.00 | 0.00 | 0.00 | 92 | 1017.5 |
| 20260902123405 | 75 | 152 | 1.7 | 2.6 | 0.00 | 0.00 | 0.00 | 93 | 1017.5 |
| 20260902122903 | 75 | 232 | 0.0 | 2.6 | 0.00 | 0.00 | 0.00 | 93 | 1017.5 |
| 20260902122359 | 74 | 233 | 0.0 | 2.6 | 0.00 | 0.00 | 0.00 | 93 | 1017.4 |
| 20260902121854 | 74 | 232 | 0.9 | 0.9 | 0.00 | 0.00 | 0.00 | 95 | 1017.4 |
| 20260902121348 | 73 | 234 | 0.0 | 0.9 | 0.00 | 0.00 | 0.00 | 96 | 1017.3 |
| 20260902120843 | 73 | 230 | 0.9 | 0.9 | 0.00 | 0.00 | 0.00 | 96 | 1017.1 |
| 20260902120340 | 73 | 230 | 0.0 | 0.9 | 0.00 | 0.00 | 0.00 | 97 | 1017.4 |
| 20260902115834 | 73 | 230 | 0.0 | 0.9 | 0.00 | 0.00 | 0.00 | 97 | 1017.3 |
| 20260902115331 | 73 | 230 | 0.0 | 0.0 | 0.00 | 0.00 | 0.00 | 97 | 1017.3 |
| 20260902114827 | 73 | 230 | 0.0 | 0.9 | 0.00 | 0.00 | 0.00 | 98 | 1017.1 |
| 20260902114323 | 72 | 229 | 0.9 | 0.9 | 0.00 | 0.00 | 0.00 | 98 | 1016.9 |
| 20260902113822 | 72 | 206 | 0.0 | 0.0 | 0.00 | 0.00 | 0.00 | 98 | 1016.7 |
| 20260902113317 | 72 | 222 | 0.0 | 0.9 | 0.00 | 0.00 | 0.00 | 98 | 1016.6 |
| 20260902112812 | 72 | 222 | 0.9 | 2.6 | 0.00 | 0.00 | 0.00 | 98 | 1016.6 |
| 20260902112309 | 72 | 230 | 1.7 | 2.6 | 0.00 | 0.00 | 0.00 | 98 | 1016.7 |
| 20260902111803 | 72 | 227 | 0.9 | 0.9 | 0.00 | 0.00 | 0.00 | 98 | 1016.5 |
| 20260902111300 | 72 | 227 | 0.0 | 0.9 | 0.00 | 0.00 | 0.00 | 98 | 1016.5 |
| 20260902110755 | 72 | 227 | 0.0 | 0.0 | 0.00 | 0.00 | 0.00 | 98 | 1016.4 |
| 20260902110251 | 72 | 227 | 0.0 | 0.0 | 0.00 | 0.00 | 0.00 | 98 | 1016.7 |
| 20260902105751 | 72 | 227 | 0.0 | 0.0 | 0.00 | 0.00 | 0.00 | 98 | 1016.6 |
| 20260902105246 | 72 | 227 | 0.0 | 0.0 | 0.00 | 0.00 | 0.00 | 98 | 1016.6 |
| 20260902104742 | 72 | 227 | 0.0 | 0.9 | 0.00 | 0.00 | 0.00 | 98 | 1016.5 |
| 20260902104237 | 72 | 226 | 0.9 | 0.0 | 0.00 | 0.00 | 0.00 | 98 | 1016.3 |
| 20260902103736 | 72 | 225 | 0.0 | 0.9 | 0.00 | 0.00 | 0.00 | 98 | 1016.3 |
| 20260902103231 | 72 | 225 | 0.9 | 0.9 | 0.00 | 0.00 | 0.00 | 98 | 1016.4 |
| 20260902102727 | 72 | 221 | 0.0 | 0.9 | 0.00 | 0.00 | 0.00 | 98 | 1016.3 |
| 20260902102224 | 73 | 219 | 0.0 | 0.9 | 0.00 | 0.00 | 0.00 | 98 | 1016.4 |
| 20260902101719 | 72 | 219 | 0.9 | 0.9 | 0.00 | 0.00 | 0.00 | 98 | 1016.3 |
| 20260902101214 | 72 | 218 | 0.0 | 2.6 | 0.00 | 0.00 | 0.00 | 98 | 1016.4 |
| 20260902100713 | 72 | 221 | 0.9 | 0.9 | 0.00 | 0.00 | 0.00 | 98 | 1016.2 |
| 20260902100209 | 73 | 228 | 0.9 | 0.9 | 0.00 | 0.00 | 0.00 | 98 | 1016.4 |
| 20260902095708 | 72 | 240 | 0.9 | 3.5 | 0.00 | 0.00 | 0.00 | 98 | 1016.4 |
| 20260902095202 | 72 | 239 | 0.9 | 2.6 | 0.00 | 0.00 | 0.00 | 98 | 1016.4 |
| 20260902094657 | 72 | 198 | 0.9 | 3.5 | 0.00 | 0.00 | 0.00 | 99 | 1016.5 |
| 20260902094154 | 72 | 246 | 0.9 | 0.9 | 0.00 | 0.00 | 0.00 | 98 | 1016.5 |
| 20260902093653 | 72 | 225 | 0.0 | 0.9 | 0.00 | 0.00 | 0.00 | 98 | 1016.4 |
| 20260902093148 | 72 | 233 | 0.0 | 2.6 | 0.00 | 0.00 | 0.00 | 99 | 1016.6 |
| 20260902092643 | 72 | 245 | 0.0 | 2.6 | 0.00 | 0.00 | 0.00 | 98 | 1016.6 |
| 20260902092142 | 72 | 218 | 0.0 | 0.9 | 0.00 | 0.00 | 0.00 | 98 | 1016.6 |
| 20260902091637 | 72 | 237 | 0.9 | 0.9 | 0.00 | 0.00 | 0.00 | 99 | 1016.9 |
| 20260902091134 | 71 | 237 | 0.0 | 0.9 | 0.00 | 0.00 | 0.00 | 98 | 1017.0 |
| 20260902090629 | 71 | 237 | 0.9 | 0.9 | 0.00 | 0.00 | 0.00 | 99 | 1016.9 |
| 20260902090128 | 71 | 155 | 0.0 | 0.0 | 0.00 | 0.00 | 0.00 | 98 | 1016.7 |
| 20260902085624 | 71 | 155 | 0.0 | 0.0 | 0.00 | 0.00 | 0.00 | 98 | 1016.7 |
| 20260902085118 | 71 | 155 | 0.0 | 0.0 | 0.00 | 0.00 | 0.00 | 98 | 1016.6 |
| 20260902084615 | 71 | 155 | 0.0 | 0.0 | 0.00 | 0.00 | 0.00 | 98 | 1016.6 |
| 20260902084111 | 71 | 155 | 0.0 | 0.0 | 0.00 | 0.00 | 0.00 | 98 | 1016.7 |
| 20260902083605 | 71 | 155 | 0.0 | 0.0 | 0.00 | 0.00 | 0.00 | 98 | 1016.7 |
| 20260902083105 | 71 | 155 | 0.0 | 0.9 | 0.00 | 0.00 | 0.00 | 98 | 1016.6 |
| 20260902082601 | 71 | 155 | 0.0 | 0.0 | 0.00 | 0.00 | 0.00 | 98 | 1016.5 |
| 20260902082057 | 71 | 155 | 0.0 | 0.0 | 0.00 | 0.00 | 0.00 | 98 | 1016.6 |
| 20260902081554 | 71 | 155 | 0.0 | 0.0 | 0.00 | 0.00 | 0.00 | 98 | 1016.7 |
| 20260902081053 | 71 | 155 | 0.0 | 0.0 | 0.00 | 0.00 | 0.00 | 98 | 1016.6 |
| 20260902080548 | 71 | 155 | 0.0 | 0.0 | 0.00 | 0.00 | 0.00 | 98 | 1016.4 |
| 20260902080045 | 71 | 155 | 0.0 | 0.0 | 0.00 | 0.00 | 0.00 | 98 | 1016.5 |
| 20260902075544 | 71 | 155 | 0.0 | 0.0 | 0.00 | 0.00 | 0.00 | 98 | 1016.5 |
| 20260902075040 | 71 | 155 | 0.0 | 0.0 | 0.00 | 0.00 | 0.00 | 98 | 1016.6 |